Location: Assche-ter-Heiden
(50.9174°N, 4.1574°E)
Time: 22:01:01
(UTC+00:00)

ATLAS 2AS CENTAUR R/B - Pass Details

Date: 20 January 2020
Orbit: 927 x 1285 km, 63.7° (Epoch: 21 February)

Event Time Altitude Azimuth Distance (km) Brightness Sun altitude
Rises 06:27:01 0° 223° (SW) 4,208 5.6 -10.6°
Reaches altitude 10° 06:29:47 10° 223° (SW) 3,263 5.0 -10.2°
Maximum altitude 06:37:49 87° 313° (NW) 1,293 3.1 -9.0°
Drops below altitude 10° 06:45:49 10° 44° (NE) 3,247 5.5 -7.8°
Sets 06:48:34 0° 45° (NE) 4,187 6.1 -7.4°
